FLOCK 3M-1 (42995 NORAD) Tracking and Keplerian Element Data

This shows tracking and keplerian element data for the satellite.

Feedback or suggestion? Click here.




ElementValue
Catalog42995
NameFLOCK 3M-1
Epoch Orbit13746
Epoch Day115.07282469
Epoch Year2020
RAAN222.7647
Inclination97.3904
Eccentricity0.0014696
Argument of Perigee302.4565
Mean Anonmoly57.5249
Mean Motion15.21333641
Decay Rate1.907E-05
L11 42995U 17068J 20115.07282469 .00001907 00000-0 88075-4 0 9997
L22 42995 97.3904 222.7647 0014696 302.4565 57.5249 15.21333641137466



Live tracking and technical data element details for FLOCK 3M-1 (NORAD 42995). FLOCK 3M-1 can be tracked NOW for your location showing map with azimuth and elevation plus other details from your city location.







IsCatalogInMostPopularTable: catalog: 42995, numindb: 651
Update: records affected: 1



GetName: 42995 FLOCK 3M-1

Hit Count: updated at: Mon, 17 Jun 2024 22:53:59 GMT